Regional Weather Roundup
Issued by NWS

Home | Current Version | Previous Version | Graphics & Text | Print | Product List | Glossary On
Versions: 1 2 3 4 5 6 7 8 9 10 11 12 13 14 15 16 17 18 19 20 21 22 23 24 25 26 27 28 29 30 31 32 33 34 35 36 37 38 39 40 41 42 43 44 45 46 47 48 49 50
561
ASUS43 KLMK 251802
RWRKY
KENTUCKY REGIONAL WEATHER ROUNDUP
NATIONAL WEATHER SERVICE LOUISVILLE KY
200 PM EDT MON JUL 25 2016

NOTE "FAIR" INDICATES FEW OR NO CLOUDS BELOW 12,000 FEET
WITH NO SIGNIFICANT WEATHER AND/OR OBSTRUCTIONS TO VISIBILITY.

KYZ001>023-026-027-061>063-070>075-251900-
WESTERN AND SOUTH CENTRAL KENTUCKY

CITY           SKY/WX    TMP DP  RH WIND       PRES   REMARKS
PADUCAH        MOSUNNY   90  74  59 SW9       29.99F HX  99
HENDERSON      NOT AVBL
OWENSBORO      PTSUNNY   93  79  63 SW12      29.99F HX 110
HOPKINSVILLE   MOSUNNY   91  76  62 SW9       30.01F HX 102
BOWLING GREEN  PTSUNNY   92  75  57 SW9       30.02F HX 103
GLASGOW        NOT AVBL
$$

KYZ024-025-028>034-038-045-046-053-251900-
NORTH CENTRAL KENTUCKY

CITY           SKY/WX    TMP DP  RH WIND       PRES   REMARKS
LOUISVILLE/SDF CLOUDY    93  74  53 W9G17     29.99F HX 103
LOUISVILLE/LOU CLOUDY    86  71  60 N9        30.01S THUNDER HX  91
FORT KNOX      MOSUNNY   91  76  62 SW10      29.99F HX 102
$$

KYZ035>037-039>044-047>052-055>060-089>105-251900-
NORTHEAST KENTUCKY

CITY           SKY/WX    TMP DP  RH WIND       PRES   REMARKS
LEXINGTON      MOSUNNY   93  73  52 W8        30.02F HX 102
COVINGTON      CLOUDY    90  75  61 W8        30.00F HX 100
FRANKFORT      PTSUNNY   87  73  62 N9G20     30.00F HX  94
$$

KYZ054-064>069-076>088-106>120-251900-
SOUTHEAST KENTUCKY

CITY           SKY/WX    TMP DP  RH WIND       PRES   REMARKS
JACKSON        MOSUNNY   92  74  55 VRB5      30.05F HX 101
LONDON         LGT RAIN  86  72  62 W6        30.06F HX  92
SOMERSET       MOSUNNY   88  70  55 W6        30.05F HX  92
MIDDLESBORO    MOSUNNY   92  73  54 NW5       30.06F HX 100
MONTICELLO     PTCLDY   N/A N/A N/A W15       30.06F
$$





USA.gov is the U.S. government's official web portal to all federal, state and local government web resources and services.